Location: Hilton Head Island
(32.2163°N, 80.7526°W)
Time: 20:21:18
(UTC-04:00)

Tiros 1 despin weight - Pass Details

Date: 23 February 2026
Orbit: 556 x 593 km, 48.2° (Epoch: 9 March)

Event Time Altitude Azimuth Distance (km) Brightness Sun altitude
Rises 18:48:09 0° 316° (NW) 2,731 ? -7.6°
Reaches altitude 10° 18:50:32 10° 324° (NW) 1,834 ? -8.1°
Maximum altitude 18:54:27 38° 33° (NNE) 859 ? -8.9°
Enters shadow 18:58:02 12° 101° (E) 1,716 ? -9.6°
Drops below altitude 10° 18:58:21 10° 102° (ESE) 1,835 - -9.7°
Sets 19:00:44 0° 111° (ESE) 2,732 - -10.2°
